#timestamp,LO_Frequency,Hit,StdDev 
1635814815.4,286047001.9,P
1635814835.3,286046999.9,N
1635814855.1,286046999.9,N
1635814875.8,286047000.6,N
1635814895.7,286047001.6,N
1635814915.5,286047002.0,N
1635814935.4,286047002.8,Y
1635814955.2,286046999.7,P
1635814975.0,286047000.3,N
1635814975.9,286047000.3,N
1635814995.8,286047001.4,N
1635815015.6,286047001.7,N
1635815035.5,286047002.0,N
1635815055.3,286047001.4,N
1635815075.1,286047001.6,N
1635815095.9,286047004.0,Y
1635815115.7,286047004.3,P
1635815135.5,286047001.3,N
1635815155.4,286047001.4,N
1635815175.2,286047002.6,N
1635815195.1,286047000.1,N
1635815196.0,286047000.1,N
1635815215.8,286047001.3,N
1635815235.6,286047001.5,N
1635815255.5,286047001.8,N
1635815275.3,286047003.8,Y
1635815295.1,286047000.1,P
1635815315.9,286047002.6,P
1635815335.7,286047002.5,N
1635815355.6,286047000.0,N
1635815375.4,286047002.6,N
1635815395.2,286047002.7,N
1635815415.1,286047001.3,N
1635815416.0,286047001.3,N
1635815435.8,286047004.2,Y
1635815455.7,286047000.3,P
1635815475.5,286047000.6,N
1635815495.3,286047000.6,N
1635815515.2,286047000.7,N
1635815535.9,286047000.6,N
1635815555.7,286047002.8,Y
1635815575.6,286047000.8,P
1635815595.4,286047000.4,P
1635815615.3,286047000.6,P
1635815635.1,286046998.1,Y
1635815636.0,286046998.1,P
1635815655.8,286047000.7,N
1635815675.7,286047000.1,N
1635815695.5,286047002.4,N
1635815715.3,286046999.9,N
1635815735.2,286047002.1,N
1635815755.0,286046999.7,N
1635815755.9,286046999.7,N
1635815775.8,286046999.7,N
1635815795.6,286046999.7,N
1635815815.4,286046999.7,N
1635815835.3,286046999.9,N
1635815855.1,286047002.1,N
1635815875.9,286047002.3,N
1635815895.7,286047001.7,N
1635815915.5,286047001.4,N
1635815935.4,286047001.6,N
1635815955.2,286047004.4,Y
1635815975.0,286047003.6,P
1635815975.9,286047003.6,N
1635815995.8,286047001.5,N
1635816015.6,286047001.4,N
1635816035.5,286047001.7,N
1635816055.3,286047001.3,N
1635816075.1,286047002.2,N
1635816095.9,286047001.5,N
1635816115.7,286047003.7,Y
1635816135.5,286047002.5,P
1635816155.4,286047002.6,P
1635816175.2,286047002.3,P
1635816195.1,286047003.8,Y
1635816196.0,286047003.8,P
1635816215.8,286047001.4,N
1635816235.6,286047005.6,P
1635816255.5,286047004.9,Y
1635816275.3,286047001.4,P
1635816295.1,286047001.6,N
1635816315.9,286047004.4,P
1635816335.7,286047001.3,N
1635816355.6,286047003.3,N
1635816375.4,286047003.9,Y
1635816395.2,286046999.9,P
1635816415.1,286047002.5,N
1635816416.0,286047002.5,N
1635816435.8,286047002.5,N
1635816455.7,286047002.6,N
1635816475.5,286047002.4,N
1635816495.3,286047002.4,N
1635816515.2,286047001.8,N
1635816535.9,286047001.8,N
1635816555.7,286047003.9,Y
1635816575.6,286047000.9,P
1635816595.4,286047000.4,N
1635816615.2,286047000.6,N
1635816635.1,286046996.9,Y
1635816636.0,286046996.9,P
1635816655.8,286046995.6,N
1635816675.7,286046995.2,N
1635816695.5,286046995.9,N
1635816715.3,286046997.5,N
1635816735.2,286046997.5,N
1635816755.0,286046996.5,N
1635816755.9,286046996.5,N
1635816775.8,286046998.4,N
1635816795.6,286046998.9,N
1635816815.4,286047001.1,N
1635816835.3,286046998.8,N
1635816855.1,286046998.6,N
1635816875.8,286047000.7,N
1635816895.7,286046998.2,N
1635816915.5,286047001.9,N
1635816935.3,286047001.3,N
1635816955.2,286047002.3,N
1635816975.0,286047001.6,N
1635816975.9,286047001.6,N
1635816995.8,286047002.1,N
1635817015.6,286047003.9,N
1635817035.4,286047003.1,N
1635817055.3,286047006.0,N
1635817075.1,286047005.4,N
1635817095.8,286047005.5,N
1635817115.7,286047006.7,N
1635817135.5,286047009.0,N
1635817155.4,286047010.4,N
1635817175.2,286047010.4,N
1635817195.0,286047010.3,N
1635817195.9,286047010.3,N
1635817215.8,286047010.3,N
1635817235.6,286047012.4,N
1635817255.5,286047011.3,N
1635817275.3,286047013.9,N
1635817295.1,286047013.4,N
1635817315.9,286047010.9,N
1635817335.7,286047013.6,N
1635817355.5,286047011.0,N
1635817375.4,286047012.1,N
1635817395.2,286047011.9,N
1635817415.1,286047012.3,N
1635817416.0,286047012.3,N
1635817435.8,286047009.8,N
1635817455.6,286047009.6,N
1635817475.5,286047009.4,N
1635817495.3,286047014.0,Y
1635817515.1,286047006.0,P
1635817535.9,286047003.9,N
1635817555.7,286047002.5,N
1635817575.6,286047002.7,N
1635817595.4,286047000.1,N
1635817615.2,286047000.1,N
1635817635.1,286047001.1,N
1635817636.0,286047001.1,N
1635817655.8,286046998.2,N
1635817675.6,286046999.0,N
1635817695.5,286046999.1,N
1635817715.3,286046998.8,N
1635817735.2,286046998.2,N
1635817755.9,286046998.9,N
1635817775.7,286046998.2,N
1635817795.6,286047001.0,N
1635817815.4,286046998.2,N
1635817835.2,286047000.0,N
1635817855.1,286046999.9,N
1635817856.0,286046999.9,N
1635817875.8,286047000.0,N
1635817895.7,286047002.7,N
1635817915.5,286047002.6,N
1635817935.3,286047000.1,N
1635817955.2,286046999.8,N
1635817975.9,286047000.1,N
1635817995.7,286047002.6,N
1635818015.6,286047000.0,N
1635818035.4,286047000.3,N
1635818055.3,286047002.3,N
1635818075.1,286046999.7,N
1635818076.0,286046999.7,N
1635818125.9,286047002.3,E
1635818135.8,286047001.0,N
1635818155.6,286046999.0,P
1635818175.5,286046998.9,N
1635818195.3,286046998.9,N
1635818215.1,286046998.2,N
1635818235.9,286047001.1,N
1635818255.7,286047002.1,N
1635818275.5,286047002.3,N
1635818295.4,286047002.8,N
1635818315.2,286047000.2,N
1635818335.1,286047000.6,N
1635818336.0,286047000.6,N
1635818355.8,286047000.4,N
1635818375.6,286047000.1,N
1635818395.5,286047000.1,N
